Retour au catalogue

ALPHA

LostCommunicationsMEO
NORAD 53110·PAYLOAD·🇮🇹 Italy

Lancé Jul 13, 2022 depuis Guiana Space Centre

Loading…

Prochains Passages (prochaines 24 heures)

TLE

PériméSource: Space-Track

Époque: Sep 6, 2022, 12:01 UTC

1 53110U 22080F   22249.50115603 -.00000003  00000-0  00000+0 0  9995
2 53110  70.1887  58.2730 0239395 148.5037 284.5041  6.42698116  3412

Suivez ALPHA en temps réel avec AllMySat

Download on the App Store